Randolph AFB, TX

8:31 AM CDT on May 29, 2017 (GMT -0500)
Randolph Air Force Base

Weather History for KRND - December, 2013

Change the Weather History Date:

Tuesday, December 10, 2013

  Actual Average Record
Temperature  
Mean Temperature 38 °F -  
Max Temperature 48 °F 62 °F 78 °F (1996)
Min Temperature 29 °F 41 °F 29 °F (2013)
Degree Days  
Heating Degree Days 26    
Moisture  
Dew Point 23 °F    
Average Humidity 62    
Maximum Humidity 87    
Minimum Humidity 31    
Precipitation  
Precipitation 0.00 in - - ()
Sea Level Pressure  
Sea Level Pressure 30.40 in    
Wind  
Wind Speed 10 mph (North)    
Max Wind Speed 18 mph    
Max Gust Speed 29 mph    
Visibility 9 miles    
Events      
Averages and records for this station are not official NWS values.
T = Trace of Precipitation, MM = Missing Value Source: NWS Daily Summary

Daily Weather History Graph

Daily Weather History Graph

Search for Another Location

Airport or City:

Trip Planner

Search our weather history database for the weather conditions in past years. The results will help you decide how hot, cold, wet, or windy it might be!

Date:

Astronomy

Dec. 10, 2013 Rise Set
Actual Time 7:17 AM CST 5:34 PM CST
Civil Twilight 6:51 AM CST 6:01 PM CST
Nautical Twilight 6:21 AM CST 6:30 PM CST
Astronomical Twilight 5:52 AM CST 6:59 PM CST
Moon 1:14 PM CST (12/10) 1:02 AM CST (12/10)
Length of Visible Light 11h 09m
Length of Day
10h 17m
Waxing Gibbous, 62% of the Moon is Illuminated
Dec 10
Waxing Gibbous
Dec 17
Full
Dec 25
Last Quarter
Jan 1
New
Jan 7
First Quarter

Hourly Weather History & Observations

Time (CST) Temp. Windchill Dew Point Humidity Pressure Visibility Wind Dir Wind Speed Gust Speed Precip Events Conditions
12:58 AM 35.6 °F 25.9 °F 28.4 °F 75% 30.39 in 10.0 mi North 16.1 mph 28.8 mph N/A   Overcast
1:13 AM 33.8 °F 24.8 °F 28.4 °F 81% 30.37 in 10.0 mi North 12.7 mph - N/A   Scattered Clouds
1:43 AM 33.8 °F 23.2 °F 28.4 °F 81% 30.37 in 10.0 mi North 17.3 mph 26.5 mph N/A   Mostly Cloudy
1:58 AM 34.3 °F 23.5 °F 27.7 °F 77% 30.40 in 10.0 mi North 18.4 mph 27.6 mph N/A   Overcast
2:43 AM 32.0 °F 26.4 °F 28.4 °F 87% 30.40 in 10.0 mi North 5.8 mph - N/A   Scattered Clouds
2:48 AM 32.0 °F 27.5 °F 28.4 °F 87% 30.41 in 10.0 mi North 4.6 mph - N/A   Mostly Cloudy
2:58 AM 33.3 °F 26.4 °F 27.7 °F 80% 30.43 in 10.0 mi North 8.1 mph - N/A   Mostly Cloudy
3:28 AM 32.0 °F 23.6 °F 26.6 °F 80% 30.41 in 10.0 mi North 10.4 mph - N/A   Scattered Clouds
3:58 AM 32.5 °F 25.5 °F 27.3 °F 81% 30.43 in 10.0 mi NNW 8.1 mph - N/A   Clear
4:58 AM 31.1 °F 23.7 °F 26.1 °F 82% 30.45 in 10.0 mi North 8.1 mph - N/A   Clear
5:58 AM 30.2 °F 24.3 °F 25.9 °F 84% 30.45 in 10.0 mi NNW 5.8 mph - N/A   Clear
6:58 AM 29.5 °F 23.4 °F 24.6 °F 82% 30.47 in 10.0 mi NNW 5.8 mph - N/A   Clear
7:58 AM 30.7 °F 22.6 °F 25.2 °F 80% 30.48 in 10.0 mi NNW 9.2 mph - N/A   Clear
8:58 AM 34.2 °F 25.2 °F 23.5 °F 65% 30.51 in 10.0 mi North 12.7 mph - N/A   Clear
9:58 AM 36.7 °F 28.4 °F 21.4 °F 54% 30.52 in 10.0 mi North 12.7 mph - N/A   Clear
10:58 AM 39.2 °F 31.2 °F 20.8 °F 48% 30.52 in 10.0 mi North 13.8 mph - N/A   Clear
11:58 AM 42.3 °F 36.3 °F 19.8 °F 41% 30.49 in 10.0 mi NNW 10.4 mph - N/A   Clear
12:58 PM 45.3 °F 39.3 °F 19.8 °F 36% 30.45 in 10.0 mi North 12.7 mph 18.4 mph N/A   Clear
1:58 PM 47.1 °F - 18.9 °F 33% 30.40 in 10.0 mi North 8.1 mph - N/A   Clear
2:58 PM 48.6 °F - 19.0 °F 31% 30.38 in 10.0 mi NNW 9.2 mph - N/A   Clear
3:58 PM 48.7 °F - 19.2 °F 31% 30.37 in 10.0 mi North 8.1 mph - N/A   Clear
4:58 PM 47.7 °F - 19.9 °F 33% 30.37 in 10.0 mi North 5.8 mph - N/A   Clear
7:03 PM 39.2 °F 35.0 °F 23.0 °F 52% 30.34 in 9.0 mi NNE 5.8 mph - N/A   Clear
7:08 PM 39.2 °F 34.2 °F 21.2 °F 49% 30.34 in 9.0 mi NNE 6.9 mph - N/A   Clear
7:18 PM 39.2 °F 34.2 °F 21.2 °F 49% 30.34 in 8.0 mi NE 6.9 mph - N/A   Clear
7:23 PM 39.2 °F 34.2 °F 21.2 °F 49% 30.34 in 6.0 mi NE 6.9 mph - N/A   Haze
7:58 PM 38.3 °F 33.9 °F 21.6 °F 51% 30.37 in 5.0 mi NE 5.8 mph - N/A   Haze
8:03 PM 37.4 °F 32.8 °F 21.2 °F 52% 30.35 in 5.0 mi ENE 5.8 mph - N/A   Haze
8:08 PM 37.4 °F 32.8 °F 21.2 °F 52% 30.35 in 5.0 mi ENE 5.8 mph - N/A   Haze
8:33 PM 35.6 °F 31.7 °F 21.2 °F 56% 30.35 in 7.0 mi ENE 4.6 mph - N/A   Clear
8:49 PM 35.6 °F 31.7 °F 21.2 °F 56% 30.35 in 5.0 mi ENE 4.6 mph - N/A   Haze
10:28 PM 32.0 °F - 23.0 °F 69% 30.37 in 9.0 mi Calm Calm - N/A   Clear
10:58 PM 32.7 °F - 22.6 °F 66% 30.39 in 10.0 mi NE 1.2 mph - N/A   Clear